Voltar ao catálogo

STARLINK-37805

AtivoComunicaçõesVLEO
NORAD 100290·PAYLOAD·🇺🇸 United States

Lançado Aug 11, 2026 de Cape Canaveral Space Force Station

Loading…

Próximas Passagens (próximas 24 horas)

TLE

ObsoletoSource: Space-Track

Época: Sep 10, 2026, 06:52 UTC

1 A0290U 26183U   26253.28656138  .00258748  00000-0  16783-2 0  9999
2 A0290  53.1590 307.4238 0006520 306.3191  53.7227 15.74701730  4701

Acompanhe STARLINK-37805 em tempo real com AllMySat

Download on the App Store